This demonstration page uses our WeatherBlox Daily Observations layout. Learn more.

Left ArrowRight Arrow

41.86663, -103.66717

Hourly Observations for February 14, 2019

Temp ( °F °C ) Dew Point ( °F °C ) Humidity (%) Winds ( mph kmh ) Pressure ( in mb ) Visibility ( mi km ) Precip ( " mm )
12:53 am 00:53 Mostly Clear 40 4.4 30 -1.1 68 68 WNW 10 17 29.45 997 10 16 N/A
1:53 am 01:53 Clear 45 7.2 30 -1.1 56 56 WSW 8 13 29.42 996 10 16 N/A
2:53 am 02:53 Clear 37 2.8 29 -1.7 73 73 N N/A 29.47 998 10 16 N/A
3:53 am 03:53 Clear 35 1.7 27 -2.8 72 72 NNW 5 7 29.49 999 10 16 N/A
4:53 am 04:53 Clear 40 4.4 32 undefined 73 73 NW 12 19 29.52 1000 10 16 N/A
5:53 am 05:53 Clear 42 5.6 32 undefined 68 68 WNW 15 24 29.53 1000 10 16 N/A
6:33 am 06:33 Mostly Cloudy 28 -2.2 23 -5 81 81 NNE 26 43 29.75 1008 10 16 N/A
6:53 am 06:53 Mostly Sunny 25 -3.9 21 -6.1 85 85 N 18 30 29.67 1005 10 16 N/A
7:53 am 07:53 Cloudy 23 -5 19 -7.2 85 85 NNE 10 17 29.79 1009 10 16 N/A
8:53 am 08:53 Cloudy 21 -6.1 16 -8.9 81 81 NNE 12 19 29.88 1012 10 16 N/A
9:53 am 09:53 Cloudy 22 -5.6 15 -9.4 75 75 N 10 17 29.93 1013 10 16 N/A
10:23 am 10:23 Cloudy 22 -5.6 15 -9.4 75 75 NNW 8 13 30.07 1018 10 16 N/A
10:53 am 10:53 Cloudy 23 -5 15 -9.4 72 72 WNW 7 11 29.96 1014 10 16 N/A
11:53 am 11:53 Cloudy 28 -2.2 17 -8.3 63 63 N 9 15 29.93 1014 10 16 N/A
12:53 pm 12:53 Cloudy 29 -1.7 18 -7.8 63 63 WNW 5 7 29.89 1012 10 16 N/A
1:53 pm 13:53 Cloudy 31 -0.6 18 -7.8 59 59 VRB 6 9 29.85 1011 10 16 N/A
2:53 pm 14:53 Cloudy 32 undefined 18 -7.8 56 56 N N/A 29.88 1012 10 16 N/A
3:53 pm 15:53 Cloudy 32 undefined 19 -7.2 59 59 S 7 11 29.90 1013 10 16 N/A
4:53 pm 16:53 Cloudy 31 -0.6 19 -7.2 61 61 SSE 8 13 29.89 1012 10 16 N/A
5:53 pm 17:53 Cloudy 30 -1.1 19 -7.2 64 64 SE 9 15 29.91 1013 10 16 N/A
6:53 pm 18:53 Mostly Cloudy 28 -2.2 18 -7.8 66 66 ESE 12 19 29.93 1014 10 16 N/A
7:53 pm 19:53 Mostly Cloudy 27 -2.8 17 -8.3 66 66 ESE 13 20 29.96 1014 10 16 N/A
8:53 pm 20:53 Mostly Clear 25 -3.9 16 -8.9 69 69 ESE 18 30 29.95 1014 10 16 N/A
9:53 pm 21:53 Partly Cloudy 25 -3.9 16 -8.9 69 69 ESE 16 26 29.94 1014 10 16 N/A
10:53 pm 22:53 Cloudy 25 -3.9 16 -8.9 69 69 ESE 13 20 29.93 1013 10 16 N/A
11:53 pm 23:53 Cloudy 25 -3.9 16 -8.9 69 69 ESE 16 26 29.88 1012 10 16 N/A

Powered by AerisWeather